When you browse on this site, cookies collect data to enhance your experience and personalize the content and advertising you see.
Visit our Privacy Policy to learn more. By continuing to use the site, you agree to this use of cookies and data.
  • In Hungary
  • List of Countries
  • For 7 days
  • Water Temperature
  • Satellite Maps
  • Weather Map
  • News
  • Weather Widgets
  • user-avatar
    Login

    Hourly Weather Wadowice

    Today, 19 November, Monday

    Time Temperature Precipitation Wind Pressure Humidity
    00:00 -1°C° 0 mm 1 mps 739 mmHg 72%
    01:00 -3°C° 0 mm 2 mps 738 mmHg 74%
    02:00 -3°C° 0 mm 2 mps 738 mmHg 75%
    03:00 -3°C° 0 mm 2 mps 738 mmHg 77%
    04:00 -3°C° 0 mm 2 mps 738 mmHg 78%
    05:00 -3°C° 0 mm 2 mps 738 mmHg 80%
    06:00 -3°C° 0 mm 2 mps 738 mmHg 81%
    07:00 -4°C° 0 mm 3 mps 737 mmHg 82%
    08:00 -4°C° 0 mm 3 mps 738 mmHg 77%
    09:00 -3°C° 0 mm 4 mps 738 mmHg 73%
    10:00 -2°C° 0 mm 4 mps 738 mmHg 68%
    11:00 -2°C° 0 mm 4 mps 738 mmHg 66%
    12:00 -1°C° 0 mm 4 mps 738 mmHg 63%
    13:00 0°C° 0 mm 5 mps 738 mmHg 61%
    14:00 -1°C° 0 mm 4 mps 738 mmHg 65%
    15:00 -1°C° 0 mm 4 mps 738 mmHg 68%
    16:00 -1°C° 0 mm 3 mps 738 mmHg 72%
    17:00 -2°C° 0 mm 4 mps 738 mmHg 75%
    18:00 -2°C° 0 mm 4 mps 739 mmHg 78%
    19:00 -2°C° 0 mm 4 mps 739 mmHg 81%
    20:00 -2°C° 0 mm 4 mps 739 mmHg 83%
    21:00 -2°C° 0 mm 3 mps 739 mmHg 84%
    22:00 -2°C° 0 mm 3 mps 739 mmHg 85%
    23:00 -2°C° 0 mm 3 mps 739 mmHg 86%

    Tomorrow, 20 November, Tuesday

    Time Temperature Precipitation Wind Pressure Humidity
    00:00 -2°C° 0 mm 3 mps 739 mmHg 87%
    01:00 -2°C° 0 mm 3 mps 739 mmHg 88%
    02:00 -3°C° 0 mm 4 mps 739 mmHg 87%
    03:00 -3°C° 0 mm 4 mps 739 mmHg 87%
    04:00 -2°C° 0 mm 4 mps 738 mmHg 87%
    05:00 -3°C° 0 mm 4 mps 738 mmHg 87%
    06:00 -3°C° 0 mm 4 mps 738 mmHg 87%
    07:00 -3°C° 0 mm 4 mps 738 mmHg 87%
    08:00 -2°C° 0 mm 5 mps 738 mmHg 83%
    09:00 -1°C° 0 mm 5 mps 738 mmHg 80%
    10:00 0°C° 0 mm 5 mps 737 mmHg 76%
    11:00 0°C° 0.2 mm 5 mps 737 mmHg 75%
    12:00 +1°C° 0.2 mm 5 mps 737 mmHg 73%
    13:00 +1°C° 0.2 mm 5 mps 736 mmHg 72%
    14:00 +1°C° 0.5 mm 5 mps 736 mmHg 75%
    15:00 0°C° 0.5 mm 5 mps 736 mmHg 78%
    16:00 0°C° 0.5 mm 5 mps 736 mmHg 81%
    17:00 0°C° 0.7 mm 4 mps 736 mmHg 84%
    18:00 0°C° 0.7 mm 4 mps 736 mmHg 86%
    19:00 0°C° 0.7 mm 4 mps 736 mmHg 89%
    20:00 0°C° 0.5 mm 4 mps 736 mmHg 89%
    21:00 +1°C° 0.5 mm 3 mps 736 mmHg 90%
    22:00 +1°C° 0.5 mm 3 mps 736 mmHg 91%
    23:00 0°C° 0.1 mm 3 mps 736 mmHg 91%

    Day after tomorrow, 21 November, Wednesday

    Time Temperature Precipitation Wind Pressure Humidity
    00:00 0°C° 0.1 mm 3 mps 737 mmHg 92%
    01:00 0°C° 0.1 mm 3 mps 737 mmHg 92%
    02:00 +1°C° 0 mm 2 mps 737 mmHg 92%
    03:00 +1°C° 0 mm 2 mps 737 mmHg 92%
    04:00 +1°C° 0 mm 2 mps 737 mmHg 93%
    05:00 +1°C° 0 mm 2 mps 737 mmHg 93%
    06:00 +1°C° 0 mm 2 mps 737 mmHg 93%
    07:00 0°C° 0 mm 3 mps 738 mmHg 93%
    08:00 0°C° 0 mm 3 mps 738 mmHg 91%
    09:00 +1°C° 0 mm 3 mps 738 mmHg 90%
    10:00 +2°C° 0 mm 3 mps 739 mmHg 88%
    11:00 +2°C° 0 mm 3 mps 739 mmHg 87%
    12:00 +2°C° 0 mm 3 mps 739 mmHg 87%
    13:00 +1°C° 0 mm 4 mps 739 mmHg 86%
    14:00 +1°C° 0 mm 4 mps 739 mmHg 87%
    15:00 0°C° 0 mm 4 mps 739 mmHg 88%
    16:00 0°C° 0 mm 4 mps 739 mmHg 89%
    17:00 0°C° 0 mm 4 mps 740 mmHg 89%
    18:00 0°C° 0 mm 3 mps 740 mmHg 89%
    19:00 0°C° 0 mm 3 mps 740 mmHg 88%
    20:00 0°C° 0 mm 3 mps 740 mmHg 89%
    21:00 0°C° 0 mm 3 mps 741 mmHg 89%
    22:00 -1°C° 0 mm 3 mps 741 mmHg 90%
    23:00 -1°C° 0 mm 3 mps 741 mmHg 90%

    22 November, Thursday

    Time Temperature Precipitation Wind Pressure Humidity
    00:00 -1°C° 0 mm 3 mps 741 mmHg 90%
    01:00 -1°C° 0 mm 3 mps 741 mmHg 90%
    02:00 -1°C° 0 mm 3 mps 741 mmHg 90%
    03:00 -1°C° 0 mm 3 mps 741 mmHg 90%
    04:00 -1°C° 0 mm 3 mps 741 mmHg 90%
    05:00 -1°C° 0 mm 2 mps 741 mmHg 91%
    06:00 -1°C° 0 mm 2 mps 741 mmHg 91%
    07:00 -1°C° 0 mm 2 mps 742 mmHg 91%
    08:00 +1°C° 0 mm 2 mps 742 mmHg 89%
    09:00 +1°C° 0 mm 2 mps 742 mmHg 86%
    10:00 +2°C° 0 mm 2 mps 742 mmHg 84%
    11:00 +3°C° 0 mm 2 mps 742 mmHg 83%
    12:00 +3°C° 0 mm 2 mps 742 mmHg 82%
    13:00 +4°C° 0 mm 2 mps 742 mmHg 80%
    14:00 +3°C° 0 mm 2 mps 742 mmHg 83%
    15:00 +2°C° 0 mm 2 mps 742 mmHg 86%
    16:00 +1°C° 0 mm 2 mps 742 mmHg 88%
    17:00 +1°C° 0 mm 2 mps 743 mmHg 88%
    18:00 +2°C° 0 mm 1 mps 743 mmHg 89%
    19:00 +1°C° 0 mm 1 mps 743 mmHg 89%
    20:00 +1°C° 0 mm 1 mps 743 mmHg 89%
    21:00 +1°C° 0 mm 1 mps 744 mmHg 89%
    22:00 +1°C° 0 mm 1 mps 744 mmHg 89%
    23:00 +1°C° 0 mm 1 mps 744 mmHg 90%

    23 November, Friday

    Time Temperature Precipitation Wind Pressure Humidity
    00:00 +1°C° 0 mm 1 mps 744 mmHg 90%
    01:00 +1°C° 0 mm 1 mps 744 mmHg 90%
    02:00 +1°C° 0 mm 1 mps 744 mmHg 91%
    03:00 +1°C° 0 mm 1 mps 744 mmHg 91%
    04:00 +1°C° 0 mm 1 mps 744 mmHg 91%
    05:00 +1°C° 0 mm 1 mps 744 mmHg 92%
    06:00 +1°C° 0 mm 1 mps 744 mmHg 92%
    07:00 +1°C° 0 mm 1 mps 745 mmHg 92%
    08:00 +3°C° 0 mm 1 mps 745 mmHg 88%
    09:00 +4°C° 0 mm 1 mps 745 mmHg 85%
    10:00 +6°C° 0 mm 1 mps 745 mmHg 81%
    11:00 +6°C° 0 mm 1 mps 745 mmHg 79%
    12:00 +7°C° 0 mm 1 mps 745 mmHg 78%
    13:00 +8°C° 0 mm 1 mps 745 mmHg 76%
    14:00 +7°C° 0 mm 1 mps 745 mmHg 80%
    15:00 +6°C° 0 mm 1 mps 745 mmHg 85%
    16:00 +5°C° 0 mm 1 mps 744 mmHg 89%
    17:00 +4°C° 0 mm 1 mps 744 mmHg 90%
    18:00 +4°C° 0 mm 1 mps 744 mmHg 90%
    19:00 +4°C° 0 mm 1 mps 744 mmHg 91%
    20:00 +4°C° 0 mm 1 mps 744 mmHg 91%
    21:00 +4°C° 0 mm 1 mps 744 mmHg 91%
    22:00 +3°C° 0 mm 1 mps 744 mmHg 91%
    23:00 +3°C° 0 mm 1 mps 744 mmHg 91%

    24 November, Saturday

    Time Temperature Precipitation Wind Pressure Humidity
    00:00 +3°C° 0 mm 1 mps 744 mmHg 91%
    01:00 +3°C° 0 mm 1 mps 743 mmHg 91%
    02:00 +3°C° 0 mm 1 mps 743 mmHg 91%
    03:00 +3°C° 0 mm 1 mps 743 mmHg 91%
    04:00 +3°C° 0 mm 1 mps 742 mmHg 91%
    05:00 +3°C° 0 mm 1 mps 742 mmHg 91%
    06:00 +3°C° 0 mm 1 mps 742 mmHg 91%
    07:00 +3°C° 0 mm 1 mps 742 mmHg 91%
    08:00 +4°C° 0 mm 1 mps 742 mmHg 87%
    09:00 +5°C° 0 mm 1 mps 741 mmHg 83%
    10:00 +7°C° 0 mm 1 mps 741 mmHg 79%
    11:00 +7°C° 0 mm 1 mps 741 mmHg 77%
    12:00 +8°C° 0 mm 1 mps 741 mmHg 74%
    13:00 +9°C° 0 mm 1 mps 740 mmHg 72%
    14:00 +8°C° 0 mm 1 mps 740 mmHg 76%
    15:00 +7°C° 0 mm 1 mps 740 mmHg 81%
    16:00 +6°C° 0 mm 1 mps 739 mmHg 85%
    17:00 +6°C° 0 mm 1 mps 739 mmHg 85%
    18:00 +6°C° 0 mm 1 mps 739 mmHg 85%
    19:00 +6°C° 0 mm 1 mps 739 mmHg 85%
    20:00 +6°C° 0 mm 1 mps 739 mmHg 87%
    21:00 +5°C° 0 mm 1 mps 739 mmHg 88%
    22:00 +4°C° 0 mm 2 mps 739 mmHg 90%
    23:00 +4°C° 0 mm 2 mps 739 mmHg 90%
    Show more